Regional Weather Roundup
Issued by NWS

Home | Current Version | Previous Version | Text Only | Print | Product List | Glossary Off
Versions: 1 2 3 4 5 6 7 8 9 10 11 12 13 14 15 16 17 18 19 20 21 22 23 24 25 26 27 28 29 30 31 32 33 34 35 36 37 38 39 40 41 42 43 44 45 46 47 48 49 50

000
ASUS44 KMEG 251710
RWRTN
TENNESSEE HOURLY STATE WEATHER ROUNDUP
NATIONAL WEATHER SERVICE MEMPHIS TN
1200 PM CDT FRI MAY 25 2018

TNZ002-004-019-021-049-052-054-088>092-251800-
WEST TENNESSEE

CITY           SKY/WX    TMP DP  RH WIND       PRES   REMARKS
MEMPHIS INTL   PTSUNNY   85  71  63 VRB3      30.00F HX  90
NWS MEMPHIS      N/A     82 N/A N/A MISG        N/A
JACKSON        CLOUDY    82  73  74 CALM      30.01R
DYERSBURG      FAIR      83  70  64 CALM      30.00F
SOMERVILLE     MOSUNNY   82  70  65 SW7G13    30.00S
COVINGTON      SUNNY     82  70  65 SW6       30.00S
UNION CITY     SUNNY     84  70  61 SW8       29.97F
BOLIVAR        PTSUNNY   82  72  69 CALM      30.00S
PARIS          SUNNY     86  68  54 VRB7      30.00F
HUNTINGDON     PTSUNNY   81  72  74 SW5       30.00S
LEXINGTON      PTSUNNY   82  70  65 CALM      30.00F
SELMER         MOSUNNY   84  68  58 VRB6G12   30.00F
SAVANNAH       PTSUNNY   81  73  78 SW8G16    30.00S HAZE
$$

TNZ008-025-027-028-033-062-065-066-251800-
NORTH MIDDLE TENNESSEE

CITY           SKY/WX    TMP DP  RH WIND       PRES   REMARKS
NASHVILLE      PTSUNNY   89  65  44 SW7       30.00F HX  91
DICKSON        MOSUNNY   84  64  51 CALM      30.01F
PORTLAND       MOSUNNY   86  66  51 SW6       30.01S
CLARKSVILLE    FAIR      86  63  45 VRB5      30.00S
SMYRNA         FAIR      86  67  52 S6        30.00F
MURFREESBORO   MOSUNNY   86  64  48 SW6       29.99F
COOKEVILLE     MOSUNNY   84  70  61 S8        30.02F
LIVINGSTON     MOSUNNY   82  66  57 W6G12     30.03F
CROSSVILLE     FAIR      78  67  68 S6        30.08F
ROCKWOOD       PTSUNNY   79  66  65 S9G15     30.07F
$$

TNZ061-075-076-078-094-096-097-251800-
SOUTH MIDDLE TENNESSEE

CITY           SKY/WX    TMP DP  RH WIND       PRES   REMARKS
LEWISBURG      PTSUNNY   84  68  58 VRB7      30.00F
FAYETTEVILLE   SUNNY     84  72  65 S8        30.02F
TULLAHOMA      MOSUNNY   84  70  61 S9        30.03F
WINCHESTER     SUNNY     82  68  61 VRB6G14   30.03F
MCMINNVILLE    MOSUNNY   84  66  54 CALM      30.02F
COLUMBIA       MOSUNNY   86  66  51 S6        29.99F
SHELBYVILLE    MOSUNNY   86  68  54 VRB5G12   30.01F
$$

TNZ017-018-042-046-047-251800-
NORTHEAST TENNESSEE

CITY           SKY/WX    TMP DP  RH WIND       PRES   REMARKS
TRI CITIES     PTSUNNY   80  68  66 VRB3      30.07F
ELIZABETHTON   FAIR      81  66  61 CALM      30.06F
GREENEVILLE    PTSUNNY   82  61  47 CALM      30.06F
$$

TNZ012-013-036-069-073-074-251800-
CENTRAL EAST TENNESSEE

CITY           SKY/WX    TMP DP  RH WIND       PRES   REMARKS
KNOXVILLE      PTSUNNY   83  68  60 SW9       30.03F
OAK RIDGE      FAIR      84  69  60 VRB3      30.05F
DOWNTOWN KNOXV SUNNY     84  66  54 CALM      30.03F
GATLINBURG     SUNNY     82  66  57 NW5       30.03F
MORRISTOWN     PTSUNNY   82  66  57 NE5       30.04F
JACKSBORO      SUNNY     84  66  54 S7G14     30.07F
$$

TNZ083-085-099-251800-
SOUTHEAST TENNESSEE

CITY           SKY/WX    TMP DP  RH WIND       PRES   REMARKS
CHATTANOOGA    PTSUNNY   82  66  58 S5        30.04F
DAYTON         MOSUNNY   82  73  74 VRB6      30.03F
$$

SKY/WX REPORTED AS FAIR MEANS FEW OR NO CLOUDS BELOW
12 THOUSAND FEET.





USA.gov is the U.S. government's official web portal to all federal, state and local government web resources and services.